Home   Weather   Constantine   Past weeks

Flag for Algeria Past Weather in Constantine, Algeria — Yesterday and Last 2 Weeks

Now
82 °F

Scattered clouds.


Feels Like: 81 °F
Forecast: 61 / 81 °F
Wind: 12 mph from West

Location: Constantine Airport

Current Time: Oct 1, 2016 at 2:56:27 PM

Latest Report: Oct 1, 2016 at 2:30 PM


Visibility: N/A

Pressure: 30.01 "Hg (28.17 "Hg at 557m altitude)

Humidity: 35%

Dew Point: 52 °F

Location of ConstantineLocation

Past Weather in Constantine — Graph

°F

Constantine Temperature Yesterday

Maximum temperature yesterday: 82 °F (at 3:00 PM)
Minimum temperature yesterday: 59 °F (at 12:00 AM)
Average temperature yesterday: 68 °F

High & Low Weather Summary for the Past Weeks

 TemperatureHumidityPressure
High86 °F (Sep 22, 3:30 PM)100% (Sep 23, 9:00 AM)30.39 "Hg (Sep 23, 9:00 AM)
Low50 °F (Sep 20, 5:30 AM)23% (Sep 22, 12:30 PM)30.01 "Hg (Oct 1, 1:30 PM)
Average66 °F69%30.17 "Hg
* Reported Sep 16 1:00 PM — Oct 1 1:30 PM, Constantine, Weather by CustomWeather, © 2016

Note: Actual official high and low records may vary slightly from our data, if they occured in-between our weather recording intervals... More about our weather records

Advertising

Constantine Weather History for the Previous 24 Hours

Scroll right to see more
 ConditionsComfort  
Time TempWeatherWind HumidityBarometerVisibility
1:30 PM
Sat, Oct 1
84 °FScattered clouds.9 mph37%30.01 "HgN/A
1:00 PM82 °FScattered clouds.7 mph40%30.04 "HgN/A
12:30 PM79 °FScattered clouds.8 mph48%30.04 "HgN/A
12:00 PM81 °FScattered clouds.3 mph48%30.07 "HgN/A
11:30 AM77 °FPartly sunny.6 mph54%30.07 "HgN/A
11:00 AM75 °FPartly sunny.5 mph57%30.07 "HgN/A
10:30 AM73 °FBroken clouds.3 mph61%30.07 "HgN/A
10:00 AM72 °FBroken clouds.3 mph65%30.07 "HgN/A
9:30 AM72 °FBroken clouds.3 mph61%30.07 "HgN/A
9:00 AM72 °FBroken clouds.2 mph65%30.07 "HgN/A
8:30 AM70 °FScattered clouds.2 mph64%30.07 "HgN/A
8:00 AM70 °FScattered clouds.3 mph60%30.07 "HgN/A
7:30 AM66 °FScattered clouds.6 mph78%30.07 "HgN/A
7:00 AM64 °FScattered clouds.2 mph78%30.07 "HgN/A
6:30 AM63 °FBroken clouds.2 mph77%30.04 "HgN/A
6:00 AM63 °FPartly cloudy.6 mph77%30.04 "HgN/A
5:30 AM66 °FPassing clouds.3 mph73%30.04 "HgN/A
5:00 AM66 °FPassing clouds.6 mph68%30.07 "HgN/A
4:30 AM64 °FPassing clouds.3 mph73%30.07 "HgN/A
4:00 AM64 °FPassing clouds.5 mph73%30.07 "HgN/A
3:30 AM66 °FPassing clouds.3 mph68%30.07 "HgN/A
3:00 AM64 °FPassing clouds.2 mph68%30.09 "HgN/A
2:30 AM66 °FPassing clouds.3 mph68%30.09 "HgN/A
2:00 AM66 °FPassing clouds.3 mph64%30.09 "HgN/A
1:30 AM66 °FPassing clouds.6 mph68%30.09 "HgN/A
1:00 AM66 °FPassing clouds.8 mph68%30.09 "HgN/A
12:30 AM66 °FPassing clouds.7 mph64%30.12 "HgN/A
12:00 AM66 °FPassing clouds.8 mph64%30.12 "HgN/A
11:30 PM
Fri, Sep 30
66 °FPassing clouds.7 mph64%30.09 "HgN/A
11:00 PM68 °FPassing clouds.2 mph64%30.12 "HgN/A
10:30 PM66 °FPassing clouds.2 mph73%30.09 "HgN/A
10:00 PM64 °FPassing clouds.5 mph73%30.09 "HgN/A
9:30 PM64 °FPassing clouds.6 mph73%30.09 "HgN/A
9:00 PM66 °FPassing clouds.3 mph68%30.09 "HgN/A
8:30 PM68 °FPartly cloudy.2 mph69%30.07 "HgN/A
8:00 PM68 °FPartly cloudy.2 mph64%30.07 "HgN/A
7:30 PM70 °FPartly cloudy.2 mph60%30.07 "HgN/A
7:00 PM72 °FPartly cloudy.3 mph57%30.07 "HgN/A
6:30 PM72 °FPartly cloudy.No wind57%30.07 "HgN/A
6:00 PM73 °FBroken clouds.3 mph53%30.07 "HgN/A
5:30 PM73 °FBroken clouds.3 mph53%30.07 "HgN/A
5:00 PM77 °FBroken clouds.10 mph47%30.09 "HgN/A
4:30 PM79 °FBroken clouds.3 mph42%30.07 "HgN/A
4:00 PM82 °FBroken clouds.3 mph32%30.07 "HgN/A
3:30 PM81 °FBroken clouds.2 mph37%30.09 "HgN/A
3:00 PM82 °FBroken clouds.5 mph37%30.09 "HgN/A
2:30 PM81 °FPartly sunny.6 mph39%30.09 "HgN/A
2:00 PM81 °FPartly sunny.6 mph39%30.12 "HgN/A
Weather by CustomWeather, © 2016

See weather overviewHow to use our weather pages